| time (UTC) | temp F | wind direction | speed MPH | gust MPH | rain 1hr in | rain 24hr in | rain mn in | humidity % | barometer mb |
| 20260508181834 | 64 | 240 | 2.0 | 12.0 | 0.00 | 0.00 | 0.00 | 30 | 1012.6 |
| 20260508181525 | 64 | 191 | 2.0 | 12.0 | 0.00 | 0.00 | 0.00 | 31 | 1012.6 |
| 20260508181221 | 64 | 304 | 2.0 | 12.0 | 0.00 | 0.00 | 0.00 | 31 | 1012.6 |
| 20260508180915 | 64 | 22 | 3.0 | 12.0 | 0.00 | 0.00 | 0.00 | 32 | 1012.6 |
| 20260508180609 | 64 | 303 | 3.0 | 15.0 | 0.00 | 0.00 | 0.00 | 31 | 1012.7 |
| 20260508175009 | 64 | 297 | 5.0 | 15.0 | 0.00 | 0.00 | 0.00 | 30 | 1012.7 |
| 20260508174711 | 64 | 275 | 4.0 | 15.0 | 0.00 | 0.00 | 0.00 | 30 | 1012.8 |
| 20260508174400 | 64 | 275 | 4.0 | 12.0 | 0.00 | 0.00 | 0.00 | 32 | 1012.7 |
| 20260508174057 | 64 | 277 | 4.0 | 11.0 | 0.00 | 0.00 | 0.00 | 30 | 1012.8 |
| 20260508173744 | 63 | 345 | 4.0 | 11.0 | 0.00 | 0.00 | 0.00 | 33 | 1012.8 |
| 20260508173431 | 63 | 164 | 4.0 | 11.0 | 0.00 | 0.00 | 0.00 | 32 | 1012.9 |
| 20260508173125 | 63 | 149 | 3.0 | 11.0 | 0.00 | 0.00 | 0.00 | 32 | 1013.0 |
| 20260508172824 | 63 | 306 | 3.0 | 14.0 | 0.00 | 0.00 | 0.00 | 32 | 1013.0 |
| 20260508172523 | 63 | 231 | 3.0 | 14.0 | 0.00 | 0.00 | 0.00 | 31 | 1013.1 |
| 20260508172216 | 63 | 341 | 3.0 | 14.0 | 0.00 | 0.00 | 0.00 | 30 | 1013.0 |
| 20260508171911 | 63 | 228 | 4.0 | 14.0 | 0.00 | 0.00 | 0.00 | 31 | 1013.1 |
| 20260508171558 | 62 | 165 | 4.0 | 14.0 | 0.00 | 0.00 | 0.00 | 31 | 1013.1 |
| 20260508171246 | 62 | 296 | 4.0 | 14.0 | 0.00 | 0.00 | 0.00 | 31 | 1013.2 |
| 20260508165800 | 63 | 185 | 4.0 | 14.0 | 0.00 | 0.00 | 0.00 | 29 | 1013.4 |
| 20260508165501 | 63 | 205 | 4.0 | 14.0 | 0.00 | 0.00 | 0.00 | 28 | 1013.5 |
| 20260508165155 | 64 | 219 | 4.0 | 12.0 | 0.00 | 0.00 | 0.00 | 30 | 1013.5 |
| 20260508164854 | 64 | 156 | 3.0 | 12.0 | 0.00 | 0.00 | 0.00 | 29 | 1013.5 |
| 20260508164553 | 63 | 184 | 3.0 | 12.0 | 0.00 | 0.00 | 0.00 | 33 | 1013.5 |
| 20260508163819 | 63 | 65 | 4.0 | 12.0 | 0.00 | 0.00 | 0.00 | 29 | 1013.5 |
| 20260508162635 | 63 | 318 | 5.0 | 12.0 | 0.00 | 0.00 | 0.00 | 31 | 1013.7 |
| 20260508162332 | 63 | 235 | 5.0 | 13.0 | 0.00 | 0.00 | 0.00 | 30 | 1013.7 |
| 20260508162019 | 62 | 246 | 4.0 | 13.0 | 0.00 | 0.00 | 0.00 | 31 | 1013.8 |
| 20260508161721 | 62 | 174 | 4.0 | 13.0 | 0.00 | 0.00 | 0.00 | 30 | 1013.8 |
| 20260508161425 | 62 | 221 | 5.0 | 19.0 | 0.00 | 0.00 | 0.00 | 30 | 1013.9 |
| 20260508161128 | 62 | 319 | 5.0 | 19.0 | 0.00 | 0.00 | 0.00 | 31 | 1014.0 |
| 20260508160823 | 61 | 275 | 5.0 | 19.0 | 0.00 | 0.00 | 0.00 | 29 | 1013.9 |
| 20260508160526 | 62 | 290 | 5.0 | 19.0 | 0.00 | 0.00 | 0.00 | 30 | 1014.1 |
| 20260508160227 | 62 | 288 | 5.0 | 19.0 | 0.00 | 0.00 | 0.00 | 30 | 1014.1 |
| 20260508155925 | 62 | 265 | 5.0 | 19.0 | 0.00 | 0.00 | 0.00 | 29 | 1014.1 |
| 20260508155616 | 62 | 144 | 5.0 | 19.0 | 0.00 | 0.00 | 0.00 | 29 | 1014.2 |
| 20260508155307 | 62 | 250 | 4.0 | 15.0 | 0.00 | 0.00 | 0.00 | 31 | 1014.0 |
| 20260508155001 | 62 | 331 | 4.0 | 15.0 | 0.00 | 0.00 | 0.00 | 31 | 1014.0 |
| 20260508154652 | 62 | 348 | 5.0 | 15.0 | 0.00 | 0.00 | 0.00 | 29 | 1014.2 |
| 20260508153934 | 62 | 240 | 6.0 | 16.0 | 0.00 | 0.00 | 0.00 | 30 | 1014.2 |
| 20260508153622 | 63 | 272 | 6.0 | 16.0 | 0.00 | 0.00 | 0.00 | 30 | 1014.2 |
| 20260508153312 | 63 | 336 | 5.0 | 16.0 | 0.00 | 0.00 | 0.00 | 30 | 1014.1 |
| 20260508153000 | 63 | 245 | 5.0 | 16.0 | 0.00 | 0.00 | 0.00 | 32 | 1014.1 |
| 20260508152218 | 62 | 292 | 6.0 | 13.0 | 0.00 | 0.00 | 0.00 | 31 | 1014.3 |
| 20260508151921 | 62 | 281 | 6.0 | 17.0 | 0.00 | 0.00 | 0.00 | 30 | 1014.3 |
| 20260508151621 | 62 | 179 | 6.0 | 17.0 | 0.00 | 0.00 | 0.00 | 32 | 1014.4 |
| 20260508151320 | 62 | 198 | 5.0 | 17.0 | 0.00 | 0.00 | 0.00 | 32 | 1014.4 |
| 20260508151010 | 62 | 202 | 6.0 | 17.0 | 0.00 | 0.00 | 0.00 | 32 | 1014.4 |
| 20260508150657 | 61 | 225 | 5.0 | 17.0 | 0.00 | 0.00 | 0.00 | 34 | 1014.5 |
| 20260508150345 | 61 | 208 | 5.0 | 17.0 | 0.00 | 0.00 | 0.00 | 35 | 1014.5 |
| 20260508150037 | 60 | 237 | 5.0 | 17.0 | 0.00 | 0.00 | 0.00 | 34 | 1014.5 |
| 20260508145728 | 60 | 232 | 4.0 | 14.0 | 0.00 | 0.00 | 0.00 | 32 | 1014.5 |
| 20260508145420 | 60 | 253 | 4.0 | 10.0 | 0.00 | 0.00 | 0.00 | 33 | 1014.5 |
| 20260508143803 | 60 | 296 | 5.0 | 19.0 | 0.00 | 0.00 | 0.00 | 34 | 1014.8 |
| 20260508143458 | 60 | 313 | 4.0 | 19.0 | 0.00 | 0.00 | 0.00 | 35 | 1014.8 |
| 20260508143158 | 59 | 222 | 5.0 | 19.0 | 0.00 | 0.00 | 0.00 | 34 | 1014.7 |
| 20260508142856 | 59 | 294 | 4.0 | 19.0 | 0.00 | 0.00 | 0.00 | 34 | 1014.8 |
| 20260508142139 | 59 | 229 | 4.0 | 16.0 | 0.00 | 0.00 | 0.00 | 34 | 1014.7 |
| 20260508141841 | 58 | 330 | 4.0 | 16.0 | 0.00 | 0.00 | 0.00 | 35 | 1014.7 |
| 20260508141528 | 58 | 304 | 4.0 | 13.0 | 0.00 | 0.00 | 0.00 | 36 | 1014.8 |
| 20260508141223 | 58 | 258 | 4.0 | 13.0 | 0.00 | 0.00 | 0.00 | 36 | 1014.7 |
| 20260508140923 | 57 | 171 | 4.0 | 12.0 | 0.00 | 0.00 | 0.00 | 36 | 1014.7 |
| 20260508140620 | 57 | 17 | 4.0 | 12.0 | 0.00 | 0.00 | 0.00 | 37 | 1014.9 |
| 20260508140319 | 57 | 192 | 3.0 | 12.0 | 0.00 | 0.00 | 0.00 | 38 | 1014.9 |
| 20260508140020 | 56 | 226 | 2.0 | 8.0 | 0.00 | 0.00 | 0.00 | 39 | 1014.8 |
| 20260508135720 | 55 | 346 | 2.0 | 8.0 | 0.00 | 0.00 | 0.00 | 42 | 1014.7 |
| 20260508134958 | 54 | 219 | 3.0 | 8.0 | 0.00 | 0.00 | 0.00 | 43 | 1014.9 |
| 20260508134701 | 54 | 211 | 2.0 | 8.0 | 0.00 | 0.00 | 0.00 | 46 | 1015.0 |
| 20260508134346 | 53 | 176 | 1.0 | 8.0 | 0.00 | 0.00 | 0.00 | 47 | 1015.0 |
| 20260508134038 | 52 | 165 | 1.0 | 4.0 | 0.00 | 0.00 | 0.00 | 48 | 1015.3 |
| 20260508133321 | 51 | 31 | 0.0 | 4.0 | 0.00 | 0.00 | 0.00 | 49 | 1015.3 |
| 20260508133023 | 51 | 157 | 0.0 | 4.0 | 0.00 | 0.00 | 0.00 | 49 | 1015.4 |
| 20260508132712 | 51 | 146 | 0.0 | 4.0 | 0.00 | 0.00 | 0.00 | 50 | 1015.4 |
| 20260508132413 | 50 | 279 | 1.0 | 4.0 | 0.00 | 0.00 | 0.00 | 51 | 1015.5 |
| 20260508132100 | 50 | 273 | 1.0 | 4.0 | 0.00 | 0.00 | 0.00 | 52 | 1015.6 |
| 20260508131758 | 49 | 325 | 0.0 | 4.0 | 0.00 | 0.00 | 0.00 | 52 | 1015.6 |
| 20260508131455 | 49 | 190 | 0.0 | 3.0 | 0.00 | 0.00 | 0.00 | 52 | 1015.8 |
| 20260508130726 | 48 | 244 | 0.0 | 4.0 | 0.00 | 0.00 | 0.00 | 53 | 1015.7 |
| 20260508130413 | 48 | 321 | 0.0 | 2.0 | 0.00 | 0.00 | 0.00 | 54 | 1015.8 |
| 20260508130107 | 47 | 303 | 0.0 | 0.0 | 0.00 | 0.00 | 0.00 | 54 | 1015.7 |
| 20260508125802 | 47 | 303 | 1.0 | 4.0 | 0.00 | 0.00 | 0.00 | 54 | 1015.7 |
| 20260508125503 | 47 | 311 | 1.0 | 5.0 | 0.00 | 0.00 | 0.00 | 54 | 1015.7 |
| 20260508123851 | 46 | 292 | 1.0 | 6.0 | 0.00 | 0.00 | 0.00 | 55 | 1015.7 |
| 20260508123544 | 46 | 318 | 1.0 | 6.0 | 0.00 | 0.00 | 0.00 | 54 | 1015.7 |
| 20260508123232 | 46 | 292 | 1.0 | 6.0 | 0.00 | 0.00 | 0.00 | 55 | 1015.7 |
| 20260508122936 | 45 | 298 | 1.0 | 6.0 | 0.00 | 0.00 | 0.00 | 55 | 1015.7 |
| 20260508122627 | 45 | 292 | 1.0 | 6.0 | 0.00 | 0.00 | 0.00 | 55 | 1015.6 |
| 20260508122318 | 45 | 311 | 1.0 | 3.0 | 0.00 | 0.00 | 0.00 | 56 | 1015.7 |
| 20260508122010 | 45 | 283 | 0.0 | 3.0 | 0.00 | 0.00 | 0.00 | 56 | 1015.7 |
| 20260508121701 | 45 | 278 | 1.0 | 6.0 | 0.00 | 0.00 | 0.00 | 56 | 1015.7 |
| 20260508121357 | 45 | 284 | 1.0 | 6.0 | 0.00 | 0.00 | 0.00 | 55 | 1015.6 |
| 20260508121101 | 45 | 313 | 1.0 | 6.0 | 0.00 | 0.00 | 0.00 | 55 | 1015.6 |
| 20260508115921 | 45 | 281 | 2.0 | 5.0 | 0.00 | 0.00 | 0.00 | 55 | 1015.5 |
| 20260508115617 | 44 | 306 | 2.0 | 5.0 | 0.00 | 0.00 | 0.00 | 54 | 1015.5 |
| 20260508115317 | 44 | 273 | 2.0 | 5.0 | 0.00 | 0.00 | 0.00 | 55 | 1015.5 |
| 20260508115004 | 44 | 276 | 1.0 | 5.0 | 0.00 | 0.00 | 0.00 | 55 | 1015.4 |
| 20260508114654 | 44 | 289 | 1.0 | 5.0 | 0.00 | 0.00 | 0.00 | 55 | 1015.5 |
| 20260508113921 | 44 | 291 | 0.0 | 5.0 | 0.00 | 0.00 | 0.00 | 56 | 1015.6 |
| 20260508113616 | 44 | 294 | 0.0 | 3.0 | 0.00 | 0.00 | 0.00 | 57 | 1015.5 |
| 20260508113315 | 43 | 255 | 0.0 | 0.0 | 0.00 | 0.00 | 0.00 | 58 | 1015.5 |
| 20260508113013 | 43 | 249 | 0.0 | 2.0 | 0.00 | 0.00 | 0.00 | 59 | 1015.3 |
| 20260508112704 | 43 | 301 | 0.0 | 2.0 | 0.00 | 0.00 | 0.00 | 59 | 1015.3 |
| 20260508112400 | 43 | 272 | 0.0 | 2.0 | 0.00 | 0.00 | 0.00 | 59 | 1015.3 |
| 20260508112049 | 42 | 275 | 0.0 | 2.0 | 0.00 | 0.00 | 0.00 | 60 | 1015.2 |
| 20260508111748 | 42 | 306 | 0.0 | 2.0 | 0.00 | 0.00 | 0.00 | 62 | 1015.2 |
| 20260508111436 | 41 | 31 | 0.0 | 0.0 | 0.00 | 0.00 | 0.00 | 62 | 1015.1 |
| 20260508110720 | 40 | 277 | 0.0 | 2.0 | 0.00 | 0.00 | 0.00 | 63 | 1015.0 |
| 20260508110414 | 40 | 313 | 0.0 | 0.0 | 0.00 | 0.00 | 0.00 | 64 | 1015.0 |
| 20260508110113 | 39 | 349 | 0.0 | 0.0 | 0.00 | 0.00 | 0.00 | 64 | 1015.1 |
| 20260508105801 | 39 | 349 | 0.0 | 0.0 | 0.00 | 0.00 | 0.00 | 64 | 1015.0 |
| 20260508105452 | 39 | 349 | 0.0 | 0.0 | 0.00 | 0.00 | 0.00 | 64 | 1014.9 |
| 20260508105138 | 39 | 349 | 0.0 | 0.0 | 0.00 | 0.00 | 0.00 | 64 | 1014.8 |
| 20260508104828 | 39 | 350 | 0.0 | 0.0 | 0.00 | 0.00 | 0.00 | 64 | 1014.9 |
| 20260508104519 | 38 | 232 | 0.0 | 0.0 | 0.00 | 0.00 | 0.00 | 64 | 1014.9 |
| 20260508103745 | 38 | 232 | 0.0 | 0.0 | 0.00 | 0.00 | 0.00 | 63 | 1014.7 |
| 20260508103432 | 38 | 232 | 0.0 | 0.0 | 0.00 | 0.00 | 0.00 | 63 | 1014.7 |
| 20260508103119 | 38 | 232 | 0.0 | 0.0 | 0.00 | 0.00 | 0.00 | 63 | 1014.8 |
| 20260508102816 | 38 | 232 | 0.0 | 0.0 | 0.00 | 0.00 | 0.00 | 63 | 1014.8 |
| 20260508102517 | 38 | 232 | 0.0 | 0.0 | 0.00 | 0.00 | 0.00 | 63 | 1014.8 |
| 20260508102221 | 38 | 232 | 0.0 | 0.0 | 0.00 | 0.00 | 0.00 | 63 | 1014.9 |
| 20260508101920 | 38 | 232 | 0.0 | 0.0 | 0.00 | 0.00 | 0.00 | 63 | 1014.9 |
| 20260508101610 | 39 | 232 | 0.0 | 0.0 | 0.00 | 0.00 | 0.00 | 63 | 1014.8 |
| 20260508100839 | 39 | 232 | 0.0 | 0.0 | 0.00 | 0.00 | 0.00 | 62 | 1014.6 |
| 20260508100107 | 39 | 232 | 0.0 | 0.0 | 0.00 | 0.00 | 0.00 | 61 | 1014.2 |
| 20260508095806 | 39 | 232 | 0.0 | 0.0 | 0.00 | 0.00 | 0.00 | 61 | 1014.2 |
| 20260508095453 | 39 | 232 | 0.0 | 0.0 | 0.00 | 0.00 | 0.00 | 61 | 1014.3 |
| 20260508095146 | 39 | 232 | 0.0 | 0.0 | 0.00 | 0.00 | 0.00 | 61 | 1014.3 |
| 20260508094843 | 39 | 232 | 0.0 | 0.0 | 0.00 | 0.00 | 0.00 | 61 | 1014.2 |
| 20260508094119 | 40 | 232 | 0.0 | 0.0 | 0.00 | 0.00 | 0.00 | 61 | 1014.3 |
| 20260508093807 | 40 | 232 | 0.0 | 0.0 | 0.00 | 0.00 | 0.00 | 61 | 1014.2 |
| 20260508093042 | 40 | 159 | 0.0 | 0.0 | 0.00 | 0.00 | 0.00 | 61 | 1014.2 |
| 20260508092318 | 40 | 159 | 0.0 | 0.0 | 0.00 | 0.00 | 0.00 | 60 | 1014.2 |
| 20260508092006 | 40 | 159 | 0.0 | 0.0 | 0.00 | 0.00 | 0.00 | 60 | 1014.3 |
| 20260508091700 | 40 | 159 | 0.0 | 0.0 | 0.00 | 0.00 | 0.00 | 60 | 1014.3 |
| 20260508091352 | 40 | 159 | 0.0 | 0.0 | 0.00 | 0.00 | 0.00 | 60 | 1014.3 |
| 20260508091044 | 41 | 159 | 0.0 | 0.0 | 0.00 | 0.00 | 0.00 | 60 | 1014.3 |
| 20260508090737 | 41 | 159 | 0.0 | 0.0 | 0.00 | 0.00 | 0.00 | 60 | 1014.3 |
| 20260508090021 | 41 | 159 | 0.0 | 0.0 | 0.00 | 0.00 | 0.00 | 60 | 1014.3 |
| 20260508085711 | 41 | 159 | 0.0 | 0.0 | 0.00 | 0.00 | 0.00 | 60 | 1014.3 |
| 20260508085406 | 41 | 159 | 0.0 | 0.0 | 0.00 | 0.00 | 0.00 | 59 | 1014.3 |
| 20260508085106 | 41 | 159 | 0.0 | 0.0 | 0.00 | 0.00 | 0.00 | 59 | 1014.2 |
| 20260508084758 | 41 | 182 | 0.0 | 0.0 | 0.00 | 0.00 | 0.00 | 59 | 1014.3 |
| 20260508084446 | 41 | 182 | 0.0 | 0.0 | 0.00 | 0.00 | 0.00 | 59 | 1014.3 |
| 20260508084145 | 41 | 182 | 0.0 | 0.0 | 0.00 | 0.00 | 0.00 | 59 | 1014.3 |
| 20260508083405 | 41 | 182 | 0.0 | 0.0 | 0.00 | 0.00 | 0.00 | 60 | 1014.1 |
| 20260508083058 | 42 | 182 | 0.0 | 0.0 | 0.00 | 0.00 | 0.00 | 60 | 1014.1 |
| 20260508082749 | 42 | 182 | 0.0 | 0.0 | 0.00 | 0.00 | 0.00 | 59 | 1014.1 |
| 20260508082014 | 42 | 175 | 0.0 | 0.0 | 0.00 | 0.00 | 0.00 | 58 | 1014.0 |
| 20260508081701 | 42 | 175 | 0.0 | 0.0 | 0.00 | 0.00 | 0.00 | 58 | 1014.0 |
| 20260508081353 | 42 | 153 | 0.0 | 0.0 | 0.00 | 0.00 | 0.00 | 58 | 1014.0 |
| 20260508081045 | 42 | 153 | 0.0 | 0.0 | 0.00 | 0.00 | 0.00 | 58 | 1014.0 |
| 20260508080324 | 42 | 153 | 0.0 | 0.0 | 0.00 | 0.00 | 0.00 | 57 | 1014.0 |
| 20260508075557 | 43 | 153 | 0.0 | 0.0 | 0.00 | 0.00 | 0.00 | 56 | 1013.8 |
| 20260508075255 | 43 | 153 | 0.0 | 0.0 | 0.00 | 0.00 | 0.00 | 56 | 1013.8 |
| 20260508074950 | 43 | 153 | 0.0 | 0.0 | 0.00 | 0.00 | 0.00 | 56 | 1013.9 |
| 20260508074644 | 43 | 153 | 0.0 | 0.0 | 0.00 | 0.00 | 0.00 | 55 | 1013.9 |
| 20260508074348 | 43 | 153 | 0.0 | 0.0 | 0.00 | 0.00 | 0.00 | 55 | 1013.8 |
| 20260508074035 | 44 | 153 | 0.0 | 0.0 | 0.00 | 0.00 | 0.00 | 54 | 1013.9 |
| 20260508073318 | 44 | 153 | 0.0 | 0.0 | 0.00 | 0.00 | 0.00 | 54 | 1013.9 |
| 20260508073018 | 44 | 153 | 0.0 | 0.0 | 0.00 | 0.00 | 0.00 | 53 | 1013.9 |
| 20260508072711 | 44 | 153 | 0.0 | 0.0 | 0.00 | 0.00 | 0.00 | 53 | 1013.8 |
| 20260508072408 | 45 | 153 | 0.0 | 0.0 | 0.00 | 0.00 | 0.00 | 53 | 1013.8 |
| 20260508072105 | 45 | 153 | 0.0 | 0.0 | 0.00 | 0.00 | 0.00 | 52 | 1013.7 |
| 20260508071806 | 45 | 153 | 0.0 | 0.0 | 0.00 | 0.00 | 0.00 | 52 | 1013.7 |
| 20260508071045 | 46 | 153 | 0.0 | 0.0 | 0.00 | 0.00 | 0.00 | 51 | 1013.7 |
| 20260508070742 | 46 | 153 | 0.0 | 0.0 | 0.00 | 0.00 | 0.00 | 50 | 1013.7 |
| 20260508070436 | 46 | 153 | 0.0 | 0.0 | 0.00 | 0.00 | 0.00 | 50 | 1013.7 |
| 20260508070141 | 46 | 153 | 0.0 | 0.0 | 0.00 | 0.00 | 0.00 | 50 | 1013.7 |
| 20260508065829 | 47 | 153 | 0.0 | 0.0 | 0.00 | 0.00 | 0.00 | 49 | 1013.7 |
| 20260508065530 | 47 | 153 | 0.0 | 0.0 | 0.00 | 0.00 | 0.00 | 49 | 1013.7 |
| 20260508064811 | 47 | 153 | 0.0 | 0.0 | 0.00 | 0.00 | 0.00 | 48 | 1013.7 |
| 20260508064504 | 48 | 128 | 0.0 | 0.0 | 0.00 | 0.00 | 0.00 | 47 | 1013.6 |
| 20260508064159 | 48 | 128 | 0.0 | 0.0 | 0.00 | 0.00 | 0.00 | 47 | 1013.7 |
| 20260508063846 | 48 | 128 | 0.0 | 0.0 | 0.00 | 0.00 | 0.00 | 46 | 1013.7 |
| 20260508063544 | 49 | 213 | 0.0 | 0.0 | 0.00 | 0.00 | 0.00 | 47 | 1013.6 |
| 20260508063231 | 49 | 213 | 0.0 | 0.0 | 0.00 | 0.00 | 0.00 | 45 | 1013.7 |
| 20260508062931 | 49 | 225 | 0.0 | 0.0 | 0.00 | 0.00 | 0.00 | 45 | 1013.7 |
| 20260508062626 | 49 | 286 | 0.0 | 0.0 | 0.00 | 0.00 | 0.00 | 44 | 1013.7 |
| 20260508062326 | 50 | 286 | 0.0 | 0.0 | 0.00 | 0.00 | 0.00 | 44 | 1013.6 |
| 20260508062014 | 50 | 286 | 0.0 | 0.0 | 0.00 | 0.00 | 0.00 | 44 | 1013.7 |
| 20260508061714 | 50 | 281 | 0.0 | 0.0 | 0.00 | 0.00 | 0.00 | 43 | 1013.6 |
| 20260508061413 | 50 | 281 | 0.0 | 0.0 | 0.00 | 0.00 | 0.00 | 43 | 1013.6 |
| 20260508060219 | 51 | 328 | 1.0 | 3.0 | 0.00 | 0.00 | 0.00 | 42 | 1013.7 |
| 20260508055906 | 51 | 302 | 1.0 | 2.0 | 0.00 | 0.00 | 0.00 | 42 | 1013.6 |
| 20260508055559 | 51 | 288 | 2.0 | 7.0 | 0.00 | 0.00 | 0.00 | 41 | 1013.6 |
| 20260508055253 | 51 | 261 | 1.0 | 8.0 | 0.00 | 0.00 | 0.00 | 42 | 1013.6 |
| 20260508054950 | 51 | 298 | 2.0 | 8.0 | 0.00 | 0.00 | 0.00 | 41 | 1013.6 |
| 20260508054653 | 51 | 311 | 1.0 | 8.0 | 0.00 | 0.00 | 0.00 | 41 | 1013.5 |
| 20260508054346 | 52 | 280 | 2.0 | 8.0 | 0.00 | 0.00 | 0.00 | 41 | 1013.5 |
| 20260508054034 | 52 | 316 | 2.0 | 8.0 | 0.00 | 0.00 | 0.00 | 41 | 1013.5 |
| 20260508053724 | 52 | 312 | 2.0 | 8.0 | 0.00 | 0.00 | 0.00 | 41 | 1013.6 |
| 20260508053420 | 52 | 350 | 2.0 | 8.0 | 0.00 | 0.00 | 0.00 | 40 | 1013.7 |
| 20260508053107 | 52 | 278 | 2.0 | 8.0 | 0.00 | 0.00 | 0.00 | 40 | 1013.6 |
| 20260508052755 | 52 | 298 | 3.0 | 11.0 | 0.00 | 0.00 | 0.00 | 40 | 1013.7 |
| 20260508052448 | 52 | 292 | 2.0 | 11.0 | 0.00 | 0.00 | 0.00 | 40 | 1013.6 |
| 20260508052144 | 52 | 321 | 3.0 | 11.0 | 0.00 | 0.00 | 0.00 | 40 | 1013.6 |
| 20260508051831 | 52 | 251 | 3.0 | 11.0 | 0.00 | 0.00 | 0.00 | 39 | 1013.5 |
| 20260508051521 | 52 | 286 | 4.0 | 11.0 | 0.00 | 0.00 | 0.00 | 39 | 1013.6 |
| 20260508050802 | 53 | 278 | 2.0 | 7.0 | 0.00 | 0.00 | 0.00 | 38 | 1013.6 |
| 20260508050451 | 53 | 272 | 3.0 | 7.0 | 0.00 | 0.00 | 0.00 | 39 | 1013.6 |
| 20260508050143 | 53 | 276 | 3.0 | 7.0 | 0.00 | 0.00 | 0.00 | 38 | 1013.5 |
| 20260508045837 | 53 | 296 | 3.0 | 7.0 | 0.00 | 0.00 | 0.00 | 39 | 1013.4 |
| 20260508045124 | 53 | 282 | 3.0 | 8.0 | 0.00 | 0.00 | 0.00 | 38 | 1013.3 |
| 20260508044818 | 53 | 290 | 3.0 | 13.0 | 0.00 | 0.00 | 0.00 | 38 | 1013.1 |
| 20260508044519 | 54 | 279 | 3.0 | 13.0 | 0.00 | 0.00 | 0.00 | 38 | 1013.1 |
| 20260508044220 | 54 | 297 | 4.0 | 13.0 | 0.00 | 0.00 | 0.00 | 38 | 1013.1 |
| 20260508043917 | 54 | 307 | 5.0 | 13.0 | 0.00 | 0.00 | 0.00 | 38 | 1013.0 |
| 20260508043605 | 54 | 312 | 5.0 | 14.0 | 0.00 | 0.00 | 0.00 | 37 | 1013.0 |
| 20260508043253 | 54 | 338 | 5.0 | 14.0 | 0.00 | 0.00 | 0.00 | 37 | 1013.0 |
| 20260508042945 | 54 | 284 | 5.0 | 14.0 | 0.00 | 0.00 | 0.00 | 37 | 1012.9 |
| 20260508042637 | 54 | 280 | 4.0 | 14.0 | 0.00 | 0.00 | 0.00 | 37 | 1012.7 |
| 20260508042332 | 54 | 325 | 5.0 | 14.0 | 0.00 | 0.00 | 0.00 | 37 | 1012.8 |
| 20260508041613 | 54 | 244 | 4.0 | 12.0 | 0.00 | 0.00 | 0.00 | 37 | 1012.6 |
| 20260508041311 | 54 | 292 | 2.0 | 11.0 | 0.00 | 0.00 | 0.00 | 38 | 1012.6 |
| 20260508041012 | 53 | 338 | 2.0 | 10.0 | 0.00 | 0.00 | 0.00 | 39 | 1012.6 |
| 20260508040704 | 53 | 27 | 2.0 | 8.0 | 0.00 | 0.00 | 0.00 | 39 | 1012.5 |
| 20260508040355 | 53 | 284 | 2.0 | 8.0 | 0.00 | 0.00 | 0.00 | 40 | 1012.4 |
| 20260508040047 | 53 | 315 | 2.0 | 8.0 | 0.00 | 0.00 | 0.00 | 40 | 1012.3 |
| 20260508035743 | 53 | 248 | 1.0 | 7.0 | 0.00 | 0.00 | 0.00 | 41 | 1012.2 |
| 20260508035430 | 53 | 275 | 1.0 | 7.0 | 0.00 | 0.00 | 0.00 | 42 | 1012.2 |
| 20260508035122 | 53 | 279 | 1.0 | 6.0 | 0.00 | 0.00 | 0.00 | 42 | 1012.1 |
| 20260508034812 | 53 | 290 | 0.0 | 6.0 | 0.00 | 0.00 | 0.00 | 41 | 1012.0 |
| 20260508034505 | 53 | 269 | 0.0 | 2.0 | 0.00 | 0.00 | 0.00 | 42 | 1011.9 |
| 20260508034154 | 53 | 301 | 0.0 | 1.0 | 0.00 | 0.00 | 0.00 | 42 | 1011.9 |
| 20260508033847 | 53 | 275 | 0.0 | 0.0 | 0.00 | 0.00 | 0.00 | 42 | 1011.8 |
| 20260508033537 | 53 | 273 | 0.0 | 0.0 | 0.00 | 0.00 | 0.00 | 42 | 1011.7 |
| 20260508033238 | 53 | 273 | 0.0 | 0.0 | 0.00 | 0.00 | 0.00 | 42 | 1011.7 |
| 20260508032939 | 53 | 273 | 0.0 | 0.0 | 0.00 | 0.00 | 0.00 | 42 | 1011.6 |
| 20260508032634 | 53 | 272 | 0.0 | 3.0 | 0.00 | 0.00 | 0.00 | 42 | 1011.6 |
| 20260508032329 | 53 | 283 | 0.0 | 3.0 | 0.00 | 0.00 | 0.00 | 41 | 1011.6 |
| 20260508032032 | 53 | 303 | 0.0 | 3.0 | 0.00 | 0.00 | 0.00 | 41 | 1011.5 |
| 20260508031722 | 53 | 304 | 0.0 | 3.0 | 0.00 | 0.00 | 0.00 | 41 | 1011.6 |
| 20260508031421 | 53 | 286 | 0.0 | 3.0 | 0.00 | 0.00 | 0.00 | 41 | 1011.5 |
| 20260508031125 | 53 | 279 | 0.0 | 2.0 | 0.00 | 0.00 | 0.00 | 41 | 1011.5 |
| 20260508030356 | 53 | 276 | 0.0 | 3.0 | 0.00 | 0.00 | 0.00 | 40 | 1011.4 |
| 20260508025626 | 54 | 301 | 0.0 | 3.0 | 0.00 | 0.00 | 0.00 | 41 | 1011.3 |
| 20260508025322 | 54 | 302 | 0.0 | 1.0 | 0.00 | 0.00 | 0.00 | 40 | 1011.3 |
| 20260508025019 | 54 | 292 | 0.0 | 0.0 | 0.00 | 0.00 | 0.00 | 40 | 1011.3 |
| 20260508024707 | 54 | 279 | 0.0 | 0.0 | 0.00 | 0.00 | 0.00 | 41 | 1011.3 |
| 20260508024355 | 54 | 267 | 0.0 | 0.0 | 0.00 | 0.00 | 0.00 | 41 | 1011.3 |
| 20260508024045 | 54 | 254 | 0.0 | 0.0 | 0.00 | 0.00 | 0.00 | 41 | 1011.3 |
| 20260508023749 | 54 | 254 | 0.0 | 0.0 | 0.00 | 0.00 | 0.00 | 40 | 1011.2 |
| 20260508023035 | 54 | 255 | 0.0 | 0.0 | 0.00 | 0.00 | 0.00 | 40 | 1011.2 |
| 20260508022734 | 55 | 255 | 0.0 | 0.0 | 0.00 | 0.00 | 0.00 | 39 | 1011.2 |
| 20260508022422 | 55 | 256 | 0.0 | 0.0 | 0.00 | 0.00 | 0.00 | 39 | 1011.2 |
| 20260508022125 | 55 | 265 | 0.0 | 0.0 | 0.00 | 0.00 | 0.00 | 39 | 1011.2 |
| 20260508021818 | 55 | 265 | 0.0 | 0.0 | 0.00 | 0.00 | 0.00 | 38 | 1011.2 |
| 20260508021054 | 55 | 275 | 0.0 | 0.0 | 0.00 | 0.00 | 0.00 | 38 | 1011.1 |
| 20260508020756 | 55 | 225 | 0.0 | 0.0 | 0.00 | 0.00 | 0.00 | 37 | 1011.1 |
| 20260508020443 | 56 | 228 | 0.0 | 0.0 | 0.00 | 0.00 | 0.00 | 37 | 1011.1 |
| 20260508015727 | 56 | 219 | 0.0 | 0.0 | 0.00 | 0.00 | 0.00 | 37 | 1011.1 |
| 20260508015428 | 56 | 219 | 0.0 | 0.0 | 0.00 | 0.00 | 0.00 | 36 | 1011.0 |
| 20260508015121 | 56 | 219 | 0.0 | 0.0 | 0.00 | 0.00 | 0.00 | 36 | 1011.0 |
| 20260508014810 | 57 | 217 | 0.0 | 0.0 | 0.00 | 0.00 | 0.00 | 37 | 1011.0 |
| 20260508014502 | 57 | 263 | 0.0 | 0.0 | 0.00 | 0.00 | 0.00 | 35 | 1010.9 |
| 20260508014204 | 57 | 265 | 0.0 | 0.0 | 0.00 | 0.00 | 0.00 | 35 | 1010.9 |
| 20260508013856 | 57 | 290 | 0.0 | 0.0 | 0.00 | 0.00 | 0.00 | 36 | 1010.8 |
| 20260508013546 | 57 | 290 | 0.0 | 0.0 | 0.00 | 0.00 | 0.00 | 35 | 1010.9 |
| 20260508013238 | 57 | 290 | 0.0 | 1.0 | 0.00 | 0.00 | 0.00 | 35 | 1010.9 |
| 20260508012511 | 58 | 292 | 0.0 | 2.0 | 0.00 | 0.00 | 0.00 | 34 | 1010.6 |
| 20260508012211 | 58 | 306 | 0.0 | 2.0 | 0.00 | 0.00 | 0.00 | 33 | 1010.6 |
| 20260508011912 | 58 | 277 | 0.0 | 2.0 | 0.00 | 0.00 | 0.00 | 33 | 1010.6 |
| 20260508011616 | 58 | 275 | 0.0 | 1.0 | 0.00 | 0.00 | 0.00 | 32 | 1010.4 |
| 20260508011312 | 59 | 272 | 0.0 | 1.0 | 0.00 | 0.00 | 0.00 | 32 | 1010.5 |
| 20260508011005 | 59 | 297 | 0.0 | 0.0 | 0.00 | 0.00 | 0.00 | 32 | 1010.3 |
| 20260508010656 | 59 | 300 | 0.0 | 0.0 | 0.00 | 0.00 | 0.00 | 33 | 1010.3 |
| 20260508010354 | 59 | 300 | 0.0 | 3.0 | 0.00 | 0.00 | 0.00 | 32 | 1010.2 |
| 20260508010058 | 59 | 290 | 0.0 | 3.0 | 0.00 | 0.00 | 0.00 | 31 | 1010.1 |
| 20260508005801 | 59 | 283 | 0.0 | 6.0 | 0.00 | 0.00 | 0.00 | 31 | 1010.3 |
| 20260508005451 | 59 | 284 | 0.0 | 6.0 | 0.00 | 0.00 | 0.00 | 31 | 1010.2 |
| 20260508005151 | 59 | 286 | 1.0 | 6.0 | 0.00 | 0.00 | 0.00 | 30 | 1010.2 |
| 20260508004418 | 60 | 254 | 2.0 | 7.0 | 0.00 | 0.00 | 0.00 | 30 | 1010.0 |
| 20260508004110 | 60 | 312 | 2.0 | 7.0 | 0.00 | 0.00 | 0.00 | 29 | 1010.0 |
| 20260508003805 | 60 | 278 | 2.0 | 7.0 | 0.00 | 0.00 | 0.00 | 30 | 1010.0 |
| 20260508003456 | 60 | 263 | 2.0 | 7.0 | 0.00 | 0.00 | 0.00 | 29 | 1010.0 |
| 20260508003159 | 60 | 300 | 2.0 | 7.0 | 0.00 | 0.00 | 0.00 | 30 | 1009.9 |
| 20260508002848 | 60 | 292 | 1.0 | 6.0 | 0.00 | 0.00 | 0.00 | 30 | 1009.9 |
| 20260508002543 | 60 | 294 | 1.0 | 5.0 | 0.00 | 0.00 | 0.00 | 29 | 1009.8 |
| 20260508002240 | 60 | 277 | 1.0 | 5.0 | 0.00 | 0.00 | 0.00 | 29 | 1009.7 |
| 20260508001938 | 60 | 289 | 1.0 | 6.0 | 0.00 | 0.00 | 0.00 | 29 | 1009.7 |
| 20260508001642 | 60 | 297 | 1.0 | 6.0 | 0.00 | 0.00 | 0.00 | 29 | 1009.6 |
| 20260508001337 | 61 | 323 | 1.0 | 6.0 | 0.00 | 0.00 | 0.00 | 29 | 1009.7 |
| 20260508000616 | 61 | 292 | 1.0 | 7.0 | 0.00 | 0.00 | 0.00 | 28 | 1009.5 |
| 20260508000315 | 61 | 263 | 1.0 | 7.0 | 0.00 | 0.00 | 0.00 | 29 | 1009.6 |
| 20260508000004 | 61 | 292 | 1.0 | 8.0 | 0.00 | 0.00 | 0.00 | 28 | 1009.6 |
| 20260507235250 | 61 | 355 | 2.0 | 8.0 | 0.00 | 0.00 | 0.00 | 27 | 1009.5 |
| 20260507234104 | 62 | 272 | 2.0 | 9.0 | 0.00 | 0.00 | 0.00 | 26 | 1009.5 |
| 20260507233338 | 62 | 301 | 4.0 | 9.0 | 0.00 | 0.00 | 0.00 | 25 | 1009.3 |
| 20260507233042 | 62 | 271 | 4.0 | 9.0 | 0.00 | 0.00 | 0.00 | 26 | 1009.3 |
| 20260507232732 | 62 | 317 | 3.0 | 9.0 | 0.00 | 0.00 | 0.00 | 26 | 1009.4 |
| 20260507232430 | 62 | 297 | 3.0 | 9.0 | 0.00 | 0.00 | 0.00 | 26 | 1009.4 |
| 20260507232127 | 63 | 277 | 2.0 | 9.0 | 0.00 | 0.00 | 0.00 | 26 | 1009.3 |
| 20260507231816 | 63 | 271 | 2.0 | 7.0 | 0.00 | 0.00 | 0.00 | 27 | 1009.3 |
| 20260507231505 | 63 | 307 | 2.0 | 11.0 | 0.00 | 0.00 | 0.00 | 25 | 1009.3 |
| 20260507230725 | 63 | 350 | 3.0 | 11.0 | 0.00 | 0.00 | 0.00 | 27 | 1009.2 |
| 20260507230419 | 63 | 294 | 3.0 | 11.0 | 0.00 | 0.00 | 0.00 | 24 | 1009.1 |
| 20260507230109 | 63 | 260 | 2.0 | 11.0 | 0.00 | 0.00 | 0.00 | 24 | 1009.2 |
| 20260507225801 | 63 | 15 | 2.0 | 11.0 | 0.00 | 0.00 | 0.00 | 25 | 1009.0 |
| 20260507225450 | 64 | 332 | 2.0 | 8.0 | 0.00 | 0.00 | 0.00 | 26 | 1009.0 |
| 20260507225148 | 64 | 282 | 2.0 | 8.0 | 0.00 | 0.00 | 0.00 | 26 | 1008.9 |
| 20260507224844 | 64 | 18 | 2.0 | 8.0 | 0.00 | 0.00 | 0.00 | 24 | 1008.9 |
| 20260507224547 | 64 | 322 | 2.0 | 8.0 | 0.00 | 0.00 | 0.00 | 25 | 1009.0 |
| 20260507224249 | 64 | 273 | 2.0 | 8.0 | 0.00 | 0.00 | 0.00 | 25 | 1009.0 |
| 20260507223517 | 64 | 348 | 2.0 | 8.0 | 0.00 | 0.00 | 0.00 | 25 | 1009.0 |
| 20260507223207 | 64 | 355 | 2.0 | 8.0 | 0.00 | 0.00 | 0.00 | 26 | 1008.9 |
| 20260507222903 | 64 | 317 | 2.0 | 8.0 | 0.00 | 0.00 | 0.00 | 24 | 1008.9 |
| 20260507222600 | 64 | 304 | 2.0 | 8.0 | 0.00 | 0.00 | 0.00 | 25 | 1009.0 |
| 20260507222251 | 65 | 290 | 2.0 | 6.0 | 0.00 | 0.00 | 0.00 | 23 | 1009.0 |
| 20260507221942 | 65 | 274 | 2.0 | 11.0 | 0.00 | 0.00 | 0.00 | 23 | 1008.9 |
| 20260507221206 | 65 | 325 | 4.0 | 11.0 | 0.00 | 0.00 | 0.00 | 23 | 1008.9 |
| 20260507220907 | 65 | 240 | 3.0 | 11.0 | 0.00 | 0.00 | 0.00 | 22 | 1008.8 |
| 20260507220554 | 65 | 5 | 2.0 | 11.0 | 0.00 | 0.00 | 0.00 | 22 | 1008.7 |
| 20260507215830 | 65 | 5 | 2.0 | 7.0 | 0.00 | 0.00 | 0.00 | 24 | 1008.8 |
| 20260507215534 | 65 | 264 | 2.0 | 7.0 | 0.00 | 0.00 | 0.00 | 23 | 1008.7 |
| 20260507215226 | 65 | 348 | 3.0 | 7.0 | 0.00 | 0.00 | 0.00 | 23 | 1008.7 |
| 20260507214917 | 65 | 311 | 2.0 | 7.0 | 0.00 | 0.00 | 0.00 | 24 | 1008.6 |
| 20260507214607 | 65 | 350 | 1.0 | 7.0 | 0.00 | 0.00 | 0.00 | 26 | 1008.6 |
| 20260507214301 | 65 | 336 | 1.0 | 9.0 | 0.00 | 0.00 | 0.00 | 26 | 1008.6 |
| 20260507213958 | 65 | 325 | 1.0 | 9.0 | 0.00 | 0.00 | 0.00 | 24 | 1008.5 |
| 20260507213223 | 66 | 350 | 2.0 | 9.0 | 0.00 | 0.00 | 0.00 | 24 | 1008.7 |
| 20260507212925 | 66 | 304 | 3.0 | 9.0 | 0.00 | 0.00 | 0.00 | 22 | 1008.6 |
| 20260507212200 | 65 | 302 | 2.0 | 8.0 | 0.00 | 0.00 | 0.00 | 23 | 1008.8 |
| 20260507211900 | 65 | 9 | 2.0 | 6.0 | 0.00 | 0.00 | 0.00 | 25 | 1008.6 |
| 20260507211556 | 65 | 116 | 2.0 | 6.0 | 0.00 | 0.00 | 0.00 | 22 | 1008.6 |
| 20260507210411 | 65 | 270 | 2.0 | 9.0 | 0.00 | 0.00 | 0.00 | 21 | 1008.8 |
| 20260507210109 | 66 | 305 | 2.0 | 9.0 | 0.00 | 0.00 | 0.00 | 21 | 1008.7 |
| 20260507205805 | 66 | 267 | 2.0 | 9.0 | 0.00 | 0.00 | 0.00 | 23 | 1008.8 |
| 20260507205459 | 66 | 16 | 1.0 | 9.0 | 0.00 | 0.00 | 0.00 | 25 | 1008.9 |
| 20260507205200 | 65 | 38 | 1.0 | 9.0 | 0.00 | 0.00 | 0.00 | 23 | 1008.8 |
| 20260507204847 | 66 | 343 | 1.0 | 7.0 | 0.00 | 0.00 | 0.00 | 24 | 1008.8 |
| 20260507204131 | 67 | 275 | 1.0 | 7.0 | 0.00 | 0.00 | 0.00 | 21 | 1008.9 |
| 20260507203821 | 67 | 0 | 2.0 | 11.0 | 0.00 | 0.00 | 0.00 | 21 | 1008.9 |
| 20260507203056 | 68 | 275 | 3.0 | 11.0 | 0.00 | 0.00 | 0.00 | 21 | 1008.7 |
| 20260507202753 | 68 | 276 | 3.0 | 11.0 | 0.00 | 0.00 | 0.00 | 22 | 1008.7 |
| 20260507202452 | 68 | 321 | 2.0 | 11.0 | 0.00 | 0.00 | 0.00 | 24 | 1008.8 |
| 20260507202141 | 67 | 255 | 2.0 | 11.0 | 0.00 | 0.00 | 0.00 | 22 | 1008.7 |
| 20260507201839 | 67 | 149 | 2.0 | 7.0 | 0.00 | 0.00 | 0.00 | 24 | 1008.8 |
| 20260507201527 | 68 | 30 | 2.0 | 8.0 | 0.00 | 0.00 | 0.00 | 21 | 1008.8 |
| 20260507200745 | 68 | 333 | 2.0 | 8.0 | 0.00 | 0.00 | 0.00 | 25 | 1008.9 |
| 20260507200440 | 68 | 311 | 2.0 | 8.0 | 0.00 | 0.00 | 0.00 | 25 | 1009.1 |
| 20260507200127 | 68 | 272 | 1.0 | 8.0 | 0.00 | 0.00 | 0.00 | 26 | 1009.1 |
| 20260507195824 | 68 | 36 | 1.0 | 8.0 | 0.00 | 0.00 | 0.00 | 26 | 1009.2 |
| 20260507195527 | 67 | 302 | 1.0 | 8.0 | 0.00 | 0.00 | 0.00 | 24 | 1009.1 |
| 20260507195230 | 67 | 274 | 2.0 | 8.0 | 0.00 | 0.00 | 0.00 | 28 | 1009.2 |
| 20260507194932 | 67 | 261 | 3.0 | 8.0 | 0.00 | 0.00 | 0.00 | 22 | 1009.1 |
| 20260507194625 | 67 | 355 | 3.0 | 8.0 | 0.00 | 0.00 | 0.00 | 24 | 1009.2 |
| 20260507194325 | 67 | 16 | 2.0 | 8.0 | 0.00 | 0.00 | 0.00 | 25 | 1009.2 |
| 20260507194012 | 66 | 255 | 1.0 | 9.0 | 0.00 | 0.00 | 0.00 | 24 | 1009.4 |
| 20260507193714 | 66 | 182 | 1.0 | 9.0 | 0.00 | 0.00 | 0.00 | 22 | 1009.4 |
| 20260507193411 | 67 | 269 | 1.0 | 9.0 | 0.00 | 0.00 | 0.00 | 25 | 1009.5 |
| 20260507192635 | 66 | 278 | 2.0 | 9.0 | 0.00 | 0.00 | 0.00 | 22 | 1009.6 |
| 20260507192322 | 66 | 355 | 2.0 | 9.0 | 0.00 | 0.00 | 0.00 | 26 | 1009.6 |
| 20260507192024 | 66 | 63 | 2.0 | 8.0 | 0.00 | 0.00 | 0.00 | 24 | 1009.6 |
| 20260507191723 | 66 | 288 | 1.0 | 8.0 | 0.00 | 0.00 | 0.00 | 28 | 1009.8 |
| 20260507191422 | 66 | 341 | 1.0 | 8.0 | 0.00 | 0.00 | 0.00 | 29 | 1009.8 |
| 20260507191111 | 66 | 34 | 1.0 | 5.0 | 0.00 | 0.00 | 0.00 | 22 | 1009.7 |
| 20260507190803 | 66 | 170 | 2.0 | 5.0 | 0.00 | 0.00 | 0.00 | 26 | 1009.8 |
| 20260507190501 | 65 | 242 | 2.0 | 10.0 | 0.00 | 0.00 | 0.00 | 25 | 1009.8 |
| 20260507190203 | 65 | 22 | 3.0 | 10.0 | 0.00 | 0.00 | 0.00 | 26 | 1009.8 |
| 20260507185905 | 65 | 192 | 3.0 | 10.0 | 0.00 | 0.00 | 0.00 | 23 | 1009.9 |
| 20260507185600 | 65 | 236 | 3.0 | 10.0 | 0.00 | 0.00 | 0.00 | 24 | 1009.9 |
| 20260507185301 | 66 | 205 | 3.0 | 10.0 | 0.00 | 0.00 | 0.00 | 22 | 1010.0 |
| 20260507184948 | 66 | 273 | 3.0 | 10.0 | 0.00 | 0.00 | 0.00 | 22 | 1010.1 |
| 20260507184636 | 66 | 226 | 2.0 | 9.0 | 0.00 | 0.00 | 0.00 | 23 | 1010.1 |
| 20260507184333 | 66 | 313 | 2.0 | 9.0 | 0.00 | 0.00 | 0.00 | 23 | 1010.0 |
| 20260507184026 | 66 | 17 | 2.0 | 9.0 | 0.00 | 0.00 | 0.00 | 25 | 1010.1 |
| 20260507182840 | 65 | 305 | 5.0 | 14.0 | 0.00 | 0.00 | 0.00 | 23 | 1010.2 |